Flag for Germany Weather past 2 weeks in Leipzig, Saxony, Germany

52 °F

Drizzle. Fog.

Feels Like: 49 °F
Forecast: 45 / 53 °F
Wind: 8 mph from East

Location: Leipzig-Schkeuditz

Current Time: Oct 8, 2015 at 11:15:20 PM

Latest Report: Oct 8, 2015 at 10:20 PM

Visibility: 2 mi

Pressure: 30.12 "Hg

Humidity: 100%

Dew point: 52 °F

Location of LeipzigLocation

Historic Weather in Leipzig — Graph


Leipzig temperature yesterday

Maximum temperature yesterday: 64 °F (at 1:20 PM)
Minimum temperature yesterday: 57 °F (at 12:50 AM)
Average temperature yesterday: 60 °F

Past Weeks' High & Low Weather Summary

High68 °F (Oct 3, 3:20 PM)100% (Sep 24, 5:50 AM)30.66 "Hg (Sep 24, 5:50 AM)
Low37 °F (Oct 1, 7:20 AM)42% (Oct 1, 4:50 PM)29.74 "Hg (Oct 6, 2:50 PM)
Average54 °F81%30.21 "Hg
* Reported Sep 23 9:20 PM — Oct 8 9:50 PM, Leipzig, Weather by CustomWeather, © 2015

Note: Actual official high and low records may vary slightly from our data, if they occured in-between our weather recording intervals... More about our weather records


Leipzig weather history for previous 24 hours

Time TempWeatherWind HumidityBarometerVisibility
9:50 PM
Thu, Oct 8
54 °FDrizzle. Fog.8 mph100%30.12 "Hg2 mi
9:20 PM54 °FDrizzle. Fog.6 mph100%30.12 "Hg2 mi
8:50 PM55 °FFog.5 mph100%30.12 "Hg2 mi
8:20 PM55 °FFog.5 mph100%30.12 "Hg2 mi
7:50 PM55 °FFog.5 mph100%30.12 "Hg2 mi
7:20 PM55 °FFog.5 mph100%30.12 "Hg2 mi
6:50 PM57 °FFog.5 mph100%30.09 "Hg2 mi
6:20 PM57 °FFog.3 mph100%30.09 "Hg3 mi
5:50 PM57 °FLight rain. Fog.6 mph100%30.09 "Hg2 mi
5:20 PM59 °FMore clouds than sun.3 mph88%30.09 "HgN/A
4:50 PM59 °FMostly cloudy.3 mph88%30.09 "HgN/A
4:20 PM59 °FMore clouds than sun.3 mph94%30.09 "HgN/A
3:50 PM57 °FMore clouds than sun.5 mph94%30.09 "HgN/A
3:20 PM59 °FMore clouds than sun.6 mph88%30.09 "HgN/A
2:50 PM59 °FMore clouds than sun.6 mph94%30.09 "HgN/A
2:20 PM59 °FMore clouds than sun.7 mph88%30.07 "HgN/A
1:50 PM59 °FMore clouds than sun.6 mph88%30.07 "HgN/A
1:20 PM59 °FMostly cloudy.7 mph88%30.07 "HgN/A
12:50 PM59 °FMostly cloudy.8 mph94%30.07 "HgN/A
12:20 PM59 °FMostly cloudy.7 mph94%30.07 "HgN/A
11:50 AM59 °FMostly cloudy.7 mph94%30.07 "HgN/A
11:20 AM59 °FMostly cloudy.10 mph94%30.07 "HgN/A
10:50 AM59 °FMostly cloudy.10 mph94%30.07 "Hg5 mi
10:20 AM57 °FMostly cloudy.9 mph100%30.04 "Hg4 mi
9:50 AM57 °FMostly cloudy.8 mph100%30.04 "Hg3 mi
9:20 AM57 °FFog.8 mph100%30.04 "Hg3 mi
8:50 AM57 °FFog.7 mph100%30.04 "Hg2 mi
8:20 AM57 °FFog.7 mph100%30.01 "Hg1 mi
7:50 AM57 °FDrizzle. Fog.9 mph100%30.01 "Hg1 mi
7:20 AM57 °FDrizzle. Fog.10 mph100%30.01 "Hg2 mi
6:50 AM57 °FDrizzle. Fog.8 mph100%30.01 "Hg2 mi
5:20 AM57 °FDrizzle. Fog.8 mph100%29.98 "Hg2 mi
4:50 AM57 °FDrizzle. Fog.9 mph100%29.98 "Hg2 mi
4:20 AM57 °FDrizzle. Fog.9 mph100%29.98 "Hg2 mi
3:50 AM57 °FPassing clouds.9 mph100%29.98 "Hg4 mi
3:20 AM57 °FPassing clouds.9 mph100%29.98 "Hg5 mi
2:50 AM57 °FPartly cloudy.8 mph100%29.98 "HgN/A
2:20 AM59 °FPartly cloudy.8 mph100%29.98 "HgN/A
1:50 AM59 °FPartly cloudy.9 mph100%29.98 "HgN/A
1:20 AM59 °FPartly cloudy.9 mph100%29.98 "HgN/A
12:50 AM59 °FPartly cloudy.9 mph100%29.98 "HgN/A
11:50 PM
Wed, Oct 7
59 °FPartly cloudy.9 mph100%29.95 "HgN/A
11:20 PM59 °FLight rain. Partly cloudy.9 mph100%29.95 "HgN/A
Weather by CustomWeather, © 2015

See weather overviewHow to use our weather pages